Willmar, MN

7:26 PM CST on November 17, 2019 (GMT -0600)
Willmar

Weather History for KBDH - October, 2019

Change the Weather History Date:

Friday, October 18, 2019

  Actual Average (KBBB) Record (KBBB)
Temperature  
Mean Temperature 58 °F -  
Max Temperature 71 °F 55 °F 84 °F (2005)
Min Temperature 46 °F 34 °F 14 °F (1972)
Degree Days  
Heating Degree Days 6    
Growing Degree Days 8 (Base 50)    
Moisture  
Dew Point 43 °F    
Average Humidity 62    
Maximum Humidity 81    
Minimum Humidity 35    
Precipitation  
Precipitation 0.00 in - - ()
Sea Level Pressure  
Sea Level Pressure 29.60 in    
Wind  
Wind Speed 13 mph ()    
Max Wind Speed 26 mph    
Max Gust Speed 34 mph    
Visibility 10.0 miles    
Events      
Averages and records for this station are not official NWS values.
T = Trace of Precipitation, MM = Missing Value Source: Averaged Metar Reports

Daily Weather History Graph

Daily Weather History Graph

Search for Another Location

Airport or City:

Astronomy

Oct. 18, 2019 Rise Set
Actual Time 7:40 AM CDT 6:30 PM CDT
Civil Twilight 7:10 AM CDT 7:00 PM CDT
Nautical Twilight 6:36 AM CDT 7:34 PM CDT
Astronomical Twilight 6:02 AM CDT 8:08 PM CDT
Moon 9:37 PM CDT 12:24 PM CDT
Length of Visible Light 11h 50m
Length of Day
10h 50m
Waning Gibbous, 78% of the Moon is Illuminated
Oct 18
Waning Gibbous
Oct 21
Last Quarter
Oct 27
New
Nov 4
First Quarter
Nov 12
Full

Hourly Weather History & Observations

Time (CDT) Temp. Windchill Dew Point Humidity Pressure Visibility Wind Dir Wind Speed Gust Speed Precip Events Conditions
12:18 AM 48.2 °F - 39.2 °F 71% 29.81 in 10.0 mi SE 13.8 mph 18.4 mph N/A   Clear
12:35 AM 48.2 °F - 39.2 °F 71% 29.79 in 10.0 mi SE 15.0 mph 19.6 mph N/A   Clear
12:36 AM 48.2 °F - 39.2 °F 71% 29.79 in 10.0 mi SE 15.0 mph 19.6 mph N/A   Clear
12:58 AM 48.2 °F - 39.2 °F 71% 29.79 in 10.0 mi SE 15.0 mph - N/A   Clear
1:15 AM 48.2 °F - 39.2 °F 71% 29.78 in 10.0 mi SE 13.8 mph - N/A   Clear
1:16 AM 48.2 °F - 39.2 °F 71% 29.78 in 10.0 mi SE 12.7 mph - N/A   Clear
1:38 AM 48.2 °F - 39.2 °F 71% 29.78 in 10.0 mi SE 15.0 mph - N/A   Clear
1:55 AM 48.2 °F - 39.2 °F 71% 29.76 in 10.0 mi SE 13.8 mph - N/A   Clear
1:56 AM 48.2 °F - 39.2 °F 71% 29.76 in 10.0 mi SE 13.8 mph - N/A   Clear
2:18 AM 48.2 °F - 39.2 °F 71% 29.76 in 10.0 mi SE 17.3 mph 23.0 mph N/A   Clear
2:35 AM 48.2 °F - 39.2 °F 71% 29.76 in 10.0 mi SE 15.0 mph 20.7 mph N/A   Clear
2:36 AM 48.2 °F - 39.2 °F 71% 29.76 in 10.0 mi SE 15.0 mph - N/A   Clear
2:58 AM 48.2 °F - 39.2 °F 71% 29.75 in 10.0 mi SE 17.3 mph - N/A   Clear
3:15 AM 48.2 °F - 39.2 °F 71% 29.74 in 10.0 mi SE 15.0 mph 21.9 mph N/A   Clear
3:16 AM 48.2 °F - 39.2 °F 71% 29.74 in 10.0 mi SE 12.7 mph 21.9 mph N/A   Clear
3:38 AM 48.2 °F - 39.2 °F 71% 29.73 in 10.0 mi SE 12.7 mph 18.4 mph N/A   Clear
3:55 AM 48.2 °F - 39.2 °F 71% 29.73 in 10.0 mi SE 13.8 mph - N/A   Clear
3:56 AM 48.2 °F - 39.2 °F 71% 29.73 in 10.0 mi SE 12.7 mph - N/A   Clear
4:18 AM 48.2 °F - 39.2 °F 71% 29.72 in 10.0 mi SE 13.8 mph - N/A   Clear
4:35 AM 48.2 °F - 39.2 °F 71% 29.71 in 10.0 mi SE 13.8 mph 20.7 mph N/A   Clear
4:55 AM 46.4 °F 40.4 °F 39.2 °F 76% 29.70 in 10.0 mi SE 13.8 mph - N/A   Clear
4:59 AM 46.4 °F 40.1 °F 41.0 °F 81% 29.70 in 10.0 mi SE 15.0 mph - N/A   Clear
5:15 AM 46.4 °F 39.8 °F 39.2 °F 76% 29.69 in 10.0 mi SE 16.1 mph - N/A   Clear
5:35 AM 46.4 °F 41.5 °F 39.2 °F 76% 29.69 in 10.0 mi SE 10.4 mph 18.4 mph N/A   Clear
5:39 AM 46.4 °F 40.7 °F 41.0 °F 81% 29.69 in 10.0 mi SE 12.7 mph - N/A   Clear
5:55 AM 46.4 °F 40.4 °F 41.0 °F 81% 29.68 in 10.0 mi SE 13.8 mph - N/A   Clear
6:15 AM 46.4 °F 40.4 °F 39.2 °F 76% 29.68 in 10.0 mi SE 13.8 mph 19.6 mph N/A   Clear
6:16 AM 46.4 °F 40.4 °F 39.2 °F 76% 29.68 in 10.0 mi SE 13.8 mph 19.6 mph N/A   Clear
6:37 AM 46.4 °F 40.4 °F 41.0 °F 81% 29.67 in 10.0 mi SE 13.8 mph 19.6 mph N/A   Clear
6:55 AM 46.4 °F 39.8 °F 41.0 °F 81% 29.67 in 10.0 mi SE 16.1 mph - N/A   Clear
6:56 AM 46.4 °F 40.1 °F 41.0 °F 81% 29.67 in 10.0 mi SE 15.0 mph - N/A   Clear
7:17 AM 46.4 °F 40.7 °F 41.0 °F 81% 29.67 in 10.0 mi SE 12.7 mph 20.7 mph N/A   Clear
7:35 AM 46.4 °F 40.1 °F 41.0 °F 81% 29.66 in 10.0 mi SE 15.0 mph 19.6 mph N/A   Clear
7:36 AM 46.4 °F 40.4 °F 41.0 °F 81% 29.66 in 10.0 mi SE 13.8 mph 19.6 mph N/A   Clear
7:55 AM 46.4 °F 39.8 °F 41.0 °F 81% 29.65 in 10.0 mi SE 16.1 mph 19.6 mph N/A   Clear
7:59 AM 46.4 °F 40.4 °F 41.0 °F 81% 29.65 in 10.0 mi SE 13.8 mph 19.6 mph N/A   Clear
8:15 AM 46.4 °F 40.1 °F 41.0 °F 81% 29.65 in 10.0 mi SE 15.0 mph 18.4 mph N/A   Clear
8:35 AM 48.2 °F - 41.0 °F 76% 29.65 in 10.0 mi SE 15.0 mph 19.6 mph N/A   Clear
8:36 AM 48.2 °F - 41.0 °F 76% 29.65 in 10.0 mi SE 13.8 mph 19.6 mph N/A   Clear
8:56 AM 48.2 °F - 41.0 °F 76% 29.63 in 10.0 mi SE 18.4 mph 24.2 mph N/A   Clear
9:15 AM 50.0 °F - 41.0 °F 71% 29.63 in 10.0 mi SE 18.4 mph 24.2 mph N/A   Clear
9:16 AM 50.0 °F - 41.0 °F 71% 29.63 in 10.0 mi SE 18.4 mph 24.2 mph N/A   Clear
9:35 AM 51.8 °F - 42.8 °F 71% 29.61 in 10.0 mi SE 20.7 mph 26.5 mph N/A   Clear
9:39 AM 51.8 °F - 42.8 °F 71% 29.62 in 10.0 mi SSE 19.6 mph 27.6 mph N/A   Clear
9:55 AM 51.8 °F - 42.8 °F 71% 29.61 in 10.0 mi SSE 17.3 mph 25.3 mph N/A   Clear
10:15 AM 53.6 °F - 42.8 °F 67% 29.61 in 10.0 mi SE 19.6 mph 26.5 mph N/A   Clear
10:16 AM 53.6 °F - 42.8 °F 67% 29.61 in 10.0 mi SSE 19.6 mph 26.5 mph N/A   Clear
10:36 AM 55.4 °F - 42.8 °F 63% 29.60 in 10.0 mi SE 17.3 mph 25.3 mph N/A   Clear
10:55 AM 57.2 °F - 42.8 °F 59% 29.60 in 10.0 mi SE 17.3 mph 26.5 mph N/A   Clear
10:56 AM 57.2 °F - 42.8 °F 59% 29.60 in 10.0 mi SE 18.4 mph 26.5 mph N/A   Clear
11:16 AM 57.2 °F - 42.8 °F 59% 29.59 in 10.0 mi SSE 20.7 mph 27.6 mph N/A   Clear
11:35 AM 60.8 °F - 42.8 °F 52% 29.59 in 10.0 mi SSE 19.6 mph 25.3 mph N/A   Clear
11:36 AM 60.8 °F - 42.8 °F 52% 29.58 in 10.0 mi SE 18.4 mph 25.3 mph N/A   Clear
11:56 AM 60.8 °F - 42.8 °F 52% 29.58 in 10.0 mi SE 19.6 mph 26.5 mph N/A   Clear
12:15 PM 62.6 °F - 44.6 °F 52% 29.58 in 10.0 mi SE 18.4 mph 24.2 mph N/A   Clear
12:16 PM 62.6 °F - 44.6 °F 52% 29.57 in 10.0 mi SE 18.4 mph 26.5 mph N/A   Clear
12:35 PM 62.6 °F - 44.6 °F 52% 29.57 in 10.0 mi SSE 17.3 mph 26.5 mph N/A   Clear
12:39 PM 62.6 °F - 44.6 °F 52% 29.56 in 10.0 mi SSE 16.1 mph 24.2 mph N/A   Clear
12:55 PM 62.6 °F - 44.6 °F 52% 29.55 in 10.0 mi SSE 15.0 mph 25.3 mph N/A   Clear
1:15 PM 64.4 °F - 44.6 °F 49% 29.54 in 10.0 mi SSE 21.9 mph 28.8 mph N/A   Clear
1:16 PM 64.4 °F - 44.6 °F 49% 29.54 in 10.0 mi SSE 20.7 mph 28.8 mph N/A   Clear
1:37 PM 66.2 °F - 44.6 °F 46% 29.52 in 10.0 mi SE 20.7 mph 26.5 mph N/A   Clear
1:55 PM 66.2 °F - 44.6 °F 46% 29.50 in 10.0 mi SE 18.4 mph 29.9 mph N/A   Clear
1:56 PM 66.2 °F - 44.6 °F 46% 29.50 in 10.0 mi SE 19.6 mph 29.9 mph N/A   Clear
2:17 PM 66.2 °F - 44.6 °F 46% 29.48 in 10.0 mi SE 26.5 mph 32.2 mph N/A   Clear
2:35 PM 68.0 °F - 44.6 °F 43% 29.47 in 10.0 mi SE 26.5 mph 34.5 mph N/A   Clear
2:36 PM 68.0 °F - 44.6 °F 43% 29.47 in 10.0 mi SE 24.2 mph 34.5 mph N/A   Clear
2:57 PM 66.2 °F - 44.6 °F 46% 29.46 in 10.0 mi SE 20.7 mph 27.6 mph N/A   Clear
3:15 PM 69.8 °F - 44.6 °F 40% 29.47 in 10.0 mi SSE 17.3 mph 28.8 mph N/A   Clear
3:16 PM 69.8 °F - 44.6 °F 40% 29.47 in 10.0 mi SSE 16.1 mph 28.8 mph N/A   Clear
3:35 PM 71.6 °F - 42.8 °F 35% 29.48 in 10.0 mi South 13.8 mph 28.8 mph N/A   Clear
3:39 PM 71.6 °F - 42.8 °F 35% 29.48 in 10.0 mi South 15.0 mph 21.9 mph N/A   Clear
3:55 PM 71.6 °F - 42.8 °F 35% 29.48 in 10.0 mi SSE 16.1 mph 28.8 mph N/A   Clear
4:15 PM 71.6 °F - 42.8 °F 35% 29.48 in 10.0 mi South 9.2 mph 19.6 mph N/A   Clear
4:16 PM 71.6 °F - 42.8 °F 35% 29.48 in 10.0 mi South 8.1 mph 19.6 mph N/A   Clear
4:36 PM 69.8 °F - 42.8 °F 38% 29.48 in 10.0 mi SSE 11.5 mph 17.3 mph N/A   Scattered Clouds
4:55 PM 71.6 °F - 42.8 °F 35% 29.47 in 10.0 mi SSE 9.2 mph - N/A   Scattered Clouds
4:56 PM 71.6 °F - 42.8 °F 35% 29.47 in 10.0 mi SSE 8.1 mph - N/A   Scattered Clouds
5:16 PM 69.8 °F - 42.8 °F 38% 29.47 in 10.0 mi SSE 8.1 mph - N/A   Scattered Clouds
5:35 PM 69.8 °F - 42.8 °F 38% 29.47 in 10.0 mi SSE 8.1 mph - N/A   Mostly Cloudy
5:36 PM 69.8 °F - 42.8 °F 38% 29.47 in 10.0 mi SSE 8.1 mph - N/A   Mostly Cloudy
5:57 PM 69.8 °F - 44.6 °F 40% 29.48 in 10.0 mi South 4.6 mph - N/A   Scattered Clouds
6:15 PM 69.8 °F - 46.4 °F 43% 29.49 in 10.0 mi SW 10.4 mph - N/A   Mostly Cloudy
6:16 PM 69.8 °F - 46.4 °F 43% 29.49 in 10.0 mi SW 10.4 mph - N/A   Mostly Cloudy
6:37 PM 69.8 °F - 46.4 °F 43% 29.49 in 10.0 mi SW 5.8 mph - N/A   Mostly Cloudy
6:55 PM 66.2 °F - 46.4 °F 49% 29.50 in 10.0 mi SW 3.5 mph - N/A   Scattered Clouds
6:56 PM 66.2 °F - 46.4 °F 49% 29.50 in 10.0 mi SW 3.5 mph - N/A   Scattered Clouds
7:18 PM 62.6 °F - 46.4 °F 55% 29.50 in 10.0 mi Calm Calm - N/A   Scattered Clouds
7:35 PM 62.6 °F - 46.4 °F 55% 29.51 in 10.0 mi Calm Calm - N/A   Mostly Cloudy
7:36 PM 62.6 °F - 46.4 °F 55% 29.51 in 10.0 mi Calm Calm - N/A   Mostly Cloudy
7:58 PM 60.8 °F - 46.4 °F 59% 29.52 in 10.0 mi Calm Calm - N/A   Mostly Cloudy
8:15 PM 60.8 °F - 46.4 °F 59% 29.52 in 10.0 mi South 3.5 mph - N/A   Mostly Cloudy
8:16 PM 60.8 °F - 46.4 °F 59% 29.52 in 10.0 mi South 3.5 mph - N/A   Mostly Cloudy
8:38 PM 59.0 °F - 46.4 °F 63% 29.53 in 10.0 mi Calm Calm - N/A   Mostly Cloudy
8:55 PM 57.2 °F - 46.4 °F 67% 29.53 in 10.0 mi SSW 3.5 mph - N/A   Scattered Clouds
8:56 PM 57.2 °F - 46.4 °F 67% 29.53 in 10.0 mi SW 3.5 mph - N/A   Scattered Clouds
9:18 PM 57.2 °F - 46.4 °F 67% 29.54 in 10.0 mi WSW 6.9 mph - N/A   Clear
9:35 PM 55.4 °F - 44.6 °F 67% 29.54 in 10.0 mi WSW 5.8 mph - N/A   Clear
9:36 PM 55.4 °F - 44.6 °F 67% 29.54 in 10.0 mi WSW 5.8 mph - N/A   Clear
9:55 PM 55.4 °F - 44.6 °F 67% 29.54 in 10.0 mi WSW 5.8 mph - N/A   Clear
9:59 PM 55.4 °F - 44.6 °F 67% 29.55 in 10.0 mi WSW 6.9 mph - N/A   Clear
10:35 PM 53.6 °F - 44.6 °F 72% 29.55 in 10.0 mi West 6.9 mph - N/A   Clear
10:39 PM 53.6 °F - 44.6 °F 72% 29.55 in 10.0 mi West 6.9 mph - N/A   Clear
10:55 PM 53.6 °F - 44.6 °F 72% 29.56 in 10.0 mi West 6.9 mph - N/A   Clear
11:15 PM 51.8 °F - 44.6 °F 76% 29.58 in 10.0 mi West 8.1 mph - N/A   Clear
11:16 PM 51.8 °F - 44.6 °F 76% 29.58 in 10.0 mi WSW 8.1 mph - N/A   Clear
11:36 PM 53.6 °F - 44.6 °F 72% 29.58 in 10.0 mi West 6.9 mph - N/A   Clear
11:55 PM 53.6 °F - 46.4 °F 77% 29.59 in 10.0 mi West 6.9 mph - N/A   Clear
11:56 PM 53.6 °F - 46.4 °F 77% 29.59 in 10.0 mi West 8.1 mph - N/A   Clear